Weather History for KGGE - December, 2013

Change the Weather History Date:

Friday, December 6, 2013

  Actual Average Record
Temperature  
Mean Temperature 74 °F -  
Max Temperature 80 °F 63 °F 80 °F (2013)
Min Temperature 68 °F 40 °F 24 °F (2010)
Cooling Degree Days 9    
Growing Degree Days 24 (Base 50)    
Moisture  
Dew Point 67 °F    
Average Humidity 85    
Maximum Humidity 100    
Minimum Humidity 54    
Precipitation  
Precipitation 0.00 in - - ()
Sea Level Pressure  
Sea Level Pressure 30.13 in    
Wind  
Wind Speed 10 mph (SSW)    
Max Wind Speed 16 mph    
Max Gust Speed 28 mph    
Visibility 10 miles    
Events      
Averages and records for this station are not official NWS values.
T = Trace of Precipitation, MM = Missing Value Source: NWS Daily Summary

Daily Weather History Graph

Daily Weather History Graph

Search for Another Location

Airport or City:

Trip Planner

Search our weather history database for the weather conditions in past years. The results will help you decide how hot, cold, wet, or windy it might be!

Date:

Astronomy

Dec. 06, 2013 Rise Set
Actual Time 7:07 AM EST 5:09 PM EST
Civil Twilight 6:39 AM EST 5:36 PM EST
Nautical Twilight 6:09 AM EST 6:07 PM EST
Astronomical Twilight 5:39 AM EST 6:37 PM EST
Moon 10:18 AM EST (12/6) 9:31 PM EST (12/6)
Length of Visible Light 10h 56m
Length of Day
10h 02m
Waxing Crescent, 19% of the Moon is Illuminated
Dec 6
Waxing Crescent
Dec 9
First Quarter
Dec 17
Full
Dec 25
Last Quarter
Jan 1
New

Hourly Weather History & Observations

Time (EST) Temp. Heat Index Dew Point Humidity Pressure Visibility Wind Dir Wind Speed Gust Speed Precip Events Conditions
12:15 AM - - - N/A% 30.13 in 10.0 mi South 6.9 mph - N/A   Scattered Clouds
12:35 AM - - - N/A% 30.13 in 10.0 mi South 8.1 mph - N/A   Clear
12:55 AM - - - N/A% 30.12 in 10.0 mi SSW 6.9 mph - N/A   Clear
1:15 AM - - - N/A% 30.12 in 10.0 mi SSW 8.1 mph - N/A   Mostly Cloudy
6:55 AM 68.0 °F - 68.0 °F 100% 30.14 in 10.0 mi SSW 10.4 mph 16.1 mph N/A   Clear
7:15 AM 68.0 °F - 68.0 °F 100% 30.14 in 10.0 mi SSW 9.2 mph - N/A   Clear
7:35 AM 68.0 °F - 68.0 °F 100% 30.14 in 10.0 mi SSW 9.2 mph - N/A   Clear
7:55 AM 68.0 °F - 68.0 °F 100% 30.15 in 10.0 mi SSW 9.2 mph - N/A   Clear
8:15 AM 68.0 °F - 68.0 °F 100% 30.16 in 10.0 mi SSW 9.2 mph - N/A   Clear
8:35 AM 68.0 °F - 68.0 °F 100% 30.16 in 10.0 mi SSW 9.2 mph 16.1 mph N/A   Clear
8:55 AM 69.8 °F - 68.0 °F 94% 30.17 in 10.0 mi SW 13.8 mph 18.4 mph N/A   Clear
9:15 AM 69.8 °F - 68.0 °F 94% 30.17 in 10.0 mi SSW 10.4 mph - N/A   Clear
9:35 AM 71.6 °F - 68.0 °F 88% 30.18 in 10.0 mi SSW 12.7 mph 16.1 mph N/A   Clear
9:55 AM 71.6 °F - 68.0 °F 88% 30.18 in 10.0 mi SSW 13.8 mph 18.4 mph N/A   Clear
10:15 AM 73.4 °F - 68.0 °F 83% 30.18 in 10.0 mi SSW 13.8 mph 20.7 mph N/A   Clear
10:35 AM 73.4 °F - 68.0 °F 83% 30.18 in 10.0 mi SSW 15.0 mph 20.7 mph N/A   Clear
10:55 AM 75.2 °F - 68.0 °F 78% 30.18 in 10.0 mi SSW 13.8 mph 23.0 mph N/A   Clear
11:15 AM 77.0 °F - 68.0 °F 74% 30.18 in 10.0 mi SSW 11.5 mph 17.3 mph N/A   Clear
11:35 AM 77.0 °F - 68.0 °F 74% 30.17 in 10.0 mi SSW 12.7 mph 18.4 mph N/A   Scattered Clouds
11:55 AM 78.8 °F - 68.0 °F 69% 30.16 in 10.0 mi SSW 16.1 mph 23.0 mph N/A   Scattered Clouds
12:15 PM 77.0 °F - 66.2 °F 69% 30.16 in 10.0 mi SSW 16.1 mph 25.3 mph N/A   Scattered Clouds
12:35 PM 78.8 °F - 66.2 °F 65% 30.15 in 10.0 mi SSW 13.8 mph 23.0 mph N/A   Scattered Clouds
12:55 PM 78.8 °F - 66.2 °F 65% 30.14 in 10.0 mi SW 16.1 mph 26.5 mph N/A   Scattered Clouds
1:15 PM 78.8 °F - 64.4 °F 61% 30.13 in 10.0 mi SSW 13.8 mph 27.6 mph N/A   Clear
1:35 PM 78.8 °F - 62.6 °F 57% 30.12 in 10.0 mi SW 16.1 mph 25.3 mph N/A   Clear
1:55 PM 80.6 °F 81.8 °F 62.6 °F 54% 30.11 in 10.0 mi South 16.1 mph 21.9 mph N/A   Clear
2:15 PM 80.6 °F 81.8 °F 62.6 °F 54% 30.11 in 10.0 mi South 12.7 mph 24.2 mph N/A   Scattered Clouds
2:35 PM 78.8 °F - 64.4 °F 61% 30.10 in 10.0 mi SSW 13.8 mph 23.0 mph N/A   Scattered Clouds
2:55 PM 78.8 °F - 66.2 °F 65% 30.10 in 10.0 mi SSW 13.8 mph 19.6 mph N/A   Clear
3:15 PM 78.8 °F - 66.2 °F 65% 30.09 in 10.0 mi SSW 10.4 mph 20.7 mph N/A   Clear
3:35 PM 77.0 °F - 68.0 °F 74% 30.09 in 10.0 mi SSW 15.0 mph 18.4 mph N/A   Clear
3:55 PM 77.0 °F - 68.0 °F 74% 30.10 in 10.0 mi SSW 13.8 mph 21.9 mph N/A   Clear
4:15 PM 73.4 °F - 68.0 °F 83% 30.10 in 10.0 mi SSW 12.7 mph 25.3 mph N/A   Clear
4:35 PM 73.4 °F - 68.0 °F 83% 30.10 in 10.0 mi SSW 13.8 mph 19.6 mph N/A   Clear
4:55 PM 71.6 °F - 68.0 °F 88% 30.11 in 10.0 mi SSW 12.7 mph - N/A   Clear
5:15 PM 71.6 °F - 68.0 °F 88% 30.11 in 10.0 mi SSW 12.7 mph 19.6 mph N/A   Clear
5:35 PM 71.6 °F - 68.0 °F 88% 30.11 in 10.0 mi SSW 10.4 mph - N/A   Clear
5:55 PM 69.8 °F - 68.0 °F 94% 30.11 in 10.0 mi SSW 6.9 mph - N/A   Clear
6:15 PM 69.8 °F - 68.0 °F 94% 30.11 in 10.0 mi SSW 9.2 mph - N/A   Clear
6:35 PM 68.0 °F - 68.0 °F 100% 30.12 in 10.0 mi SSW 6.9 mph - N/A   Clear
6:55 PM 68.0 °F - 68.0 °F 100% 30.12 in 10.0 mi SSW 9.2 mph - N/A   Clear
7:15 PM 68.0 °F - 68.0 °F 100% 30.12 in 10.0 mi SSW 6.9 mph - N/A   Clear
7:35 PM 68.0 °F - 68.0 °F 100% 30.12 in 10.0 mi SSW 8.1 mph - N/A   Clear
7:55 PM 68.0 °F - 68.0 °F 100% 30.12 in 10.0 mi SSW 8.1 mph - N/A   Clear
8:15 PM 68.0 °F - 68.0 °F 100% 30.13 in 10.0 mi SSW 6.9 mph - N/A   Clear
8:35 PM 68.0 °F - 68.0 °F 100% 30.12 in 10.0 mi South 9.2 mph - N/A   Clear
8:55 PM 68.0 °F - 68.0 °F 100% 30.13 in 10.0 mi SSW 8.1 mph - N/A   Clear
9:15 PM - - - N/A% 30.12 in 10.0 mi SSW 10.4 mph - N/A   Clear
9:35 PM - - - N/A% 30.12 in 10.0 mi South 10.4 mph - N/A   Clear
9:55 PM - - - N/A% 30.12 in 10.0 mi SSW 9.2 mph - N/A   Clear
10:15 PM - - - N/A% 30.12 in 10.0 mi SSW 9.2 mph - N/A   Clear
10:35 PM - - - N/A% 30.12 in 10.0 mi SSW 11.5 mph - N/A   Clear
10:55 PM 68.0 °F - 68.0 °F 100% 30.13 in 10.0 mi SSW 8.1 mph - N/A   Clear
11:15 PM 68.0 °F - 68.0 °F 100% 30.12 in 10.0 mi SSW 10.4 mph - N/A   Clear
11:35 PM 68.0 °F - 68.0 °F 100% 30.13 in 10.0 mi SSW 9.2 mph - N/A   Clear
11:55 PM 68.0 °F - 68.0 °F 100% 30.12 in 10.0 mi SSW 13.8 mph 18.4 mph N/A   Clear